Regional Weather Roundup
Issued by NWS New Orleans/Baton Rouge, LA

Home | Current Version | Previous Version | Text Only | Print | Product List | Glossary On
Versions: 1 2 3 4 5 6 7 8 9 10 11 12 13 14 15 16 17 18 19 20 21 22 23 24 25 26 27
000
ASUS44 KLIX 281011
RWRLIX
NEW ORLEANS REGIONAL WEATHER ROUNDUP
NATIONAL WEATHER SERVICE NEW ORLEANS LA
500 AM CDT SUN AUG 28 2016

NOTE: "FAIR" INDICATES FEW OR NO CLOUDS BELOW 12,000 FEET WITH NO
      SIGNIFICANT WEATHER AND/OR OBSTRUCTIONS TO VISIBILITY.
      SKY/WX - SKY CONDITION AND SIGNIFICANT WEATHER.
      TMP - AIR TEMPERATURE.     DP    - DEWPOINT TEMPERATURE.
      RH  - RELATIVE HUMIDITY.   PRES  - PRESSURE.
      HI  - HEAT INDEX.          WCI   - WIND CHILL INDEX.

*  THESE STATIONS ARE NOT NWS OR FAA STATIONS AND ARE NOT UNDER
   NWS QUALITY CONTROL.

LAZ038-040-048-061>063-065>067-069-281100-
SOUTHEAST LOUISIANA

CITY           SKY/WX    TMP DP  RH WIND       PRES   REMARKS
N.O. AUDUBON     N/A     81  78  91 MISG        N/A
N.O. INTL ARPT PTCLDY    81  76  84 E3        29.95S
N.O. LAKEFRONT CLEAR     82  76  81 E7        29.96R
N.O. DOWNTOWN*   N/A     82  77  84 CALM      29.96S
RESERVE*       CLOUDY    78  76  94 CALM      29.96S FOG
SLIDELL        CLEAR     75  74  96 N3        29.96S
BATON ROUGE    CLEAR     75  74  96 CALM      29.98R
BOOTHVILLE     MOCLDY    82  77  84 SE7       29.96R
BELLE CHASSE   PTCLDY    77  76  96 E5        29.95S
BOGALUSA*        N/A     75  72  88 CALM      30.00S
GALLIANO*      PTSUNNY   81  81 100 CALM      29.95R
NEW ROADS*       N/A     74  74 100 CALM      29.98S
GONZALES*      PTSUNNY   75  75 100 CALM      29.96S
HAMMOND*       CLEAR     73  72  94 NE3       29.97S
HOUMA*         PTCLDY    74  74 100 CALM      29.95S
PORT FOURCHON* PTSUNNY   84  77  79 SE7       29.94R

$$

MSZ070-080>082-281100-
SOUTHERN MISSISSIPPI

CITY           SKY/WX    TMP DP  RH WIND       PRES   REMARKS
MCCOMB         CLEAR     74  72  93 CALM      30.00S
GULFPORT       MOCLDY    76  74  93 NE5       29.97R
BILOXI         PTCLDY    75  75 100 NE7       29.97R
PASCAGOULA     PTCLDY    74  74 100 CALM      29.98R

$$

COASTAL OBSERVATIONS
LAKE AND NEARSHORE STATIONS

STATION/POSITION TIME  TEMP    WIND        PRES    WAVE
                       AIR SEA DIR/SP/G            HT/PER
                 (UTC) (F)     (DEG/KT/KT) (MB)    (FT/S)
PASCAGOULA       0900   78      20/  4/  9 1014.2
WAVELAND YACHT   0900   78 86   60/ 10/ 11 1014.7
GRAND ISLE       0900   82 86  100/  7/ 12 1013.9
SOUTHWEST PASS   0900          110/ 12/ 14   N/A
NEW CANAL        0900   81 85   80/  5/  6 1013.5
SHELL BEACH      0900   83 86   90/  9/ 11 1014.2

OFFSHORE STATIONS

STATION/POSITION TIME  TEMP    WIND        PRES    WAVE
                       AIR SEA DIR/SP/G            HT/PER
                 (UTC) (F)     (DEG/KT/KT) (MB)    (FT/S)
64 S DAUPHIN ISL 0900   85 85   90/ 12/ 14 1013.5

$$





USA.gov is the U.S. government's official web portal to all federal, state and local government web resources and services.